Flag for Ecuador Weather past 2 weeks in Quito, Ecuador

Now
50 °F

Passing clouds.


Feels Like: 46 °F
Forecast: 46 / 68 °F
Wind: 9 mph from South

Location: Latacunga Airport

Current Time: Aug 31, 2015 at 12:25:20 AM

Latest Report: Aug 31, 2015 at 12:00 AM


Visibility: N/A

Pressure: 30.48 "Hg (21.67 "Hg at 2826m altitude)

Humidity: 94%

Dew point: 48 °F

Location of QuitoLocation

Historic Weather in Quito — Graph

°F

Quito temperature yesterday

Maximum temperature yesterday: 64 °F (at 1:00 PM)
Minimum temperature yesterday: 48 °F (at 1:00 AM)
Average temperature yesterday: 55 °F

Past Weeks' High & Low Weather Summary

 TemperatureHumidityPressure
High72 °F (Aug 22, 1:00 PM)100% (Aug 16, 12:00 AM)30.51 "Hg (Aug 16, 12:00 AM)
Low37 °F (Aug 18, 4:00 AM)35% (Aug 18, 2:00 PM)30.30 "Hg (Aug 22, 4:00 PM)
Average54 °F83%30.42 "Hg
* Reported Aug 15 11:00 PM — Aug 30 11:00 PM, Quito, Weather by CustomWeather, © 2015

Note: Actual official high and low records may vary slightly from our data, if they occured in-between our weather recording intervals... More about our weather records

Advertising

Quito weather history for previous 24 hours

 ConditionsComfort  
Time TempWeatherWind HumidityBarometerVisibility
11:00 PM
Sun, Aug 30
50 °FPassing clouds.10 mph94%30.48 "HgN/A
10:00 PM50 °FPassing clouds.8 mph94%30.48 "HgN/A
9:00 PM50 °FPassing clouds.12 mph88%30.45 "HgN/A
8:00 PM54 °FPassing clouds.14 mph94%30.45 "HgN/A
7:00 PM55 °FPassing clouds.18 mph88%30.45 "HgN/A
6:00 PM57 °FScattered clouds.12 mph72%30.39 "HgN/A
5:00 PM59 °FScattered clouds.17 mph68%30.39 "HgN/A
4:00 PM64 °FScattered clouds.15 mph46%30.36 "HgN/A
3:00 PM63 °FScattered clouds.10 mph52%30.39 "HgN/A
2:00 PM63 °FScattered clouds.18 mph56%30.39 "HgN/A
1:00 PM64 °FScattered clouds.17 mph56%30.42 "HgN/A
12:00 PM63 °FScattered clouds.18 mph56%30.45 "HgN/A
11:00 AM59 °FBroken clouds.15 mph72%30.48 "HgN/A
10:00 AM55 °FBroken clouds.14 mph82%30.51 "HgN/A
9:00 AM54 °FPartly sunny.12 mph88%30.51 "HgN/A
8:00 AM52 °FPartly sunny.13 mph94%30.48 "HgN/A
7:00 AM50 °FPartly sunny.10 mph100%30.45 "HgN/A
6:00 AM50 °FPartly cloudy.14 mph100%30.42 "HgN/A
4:00 AM50 °FPassing clouds.13 mph100%30.42 "HgN/A
3:00 AM50 °FPassing clouds.10 mph100%30.42 "HgN/A
2:00 AM50 °FPassing clouds.12 mph100%30.42 "HgN/A
1:00 AM48 °FPassing clouds.9 mph100%30.45 "HgN/A
12:00 AM50 °FPassing clouds.15 mph100%30.45 "HgN/A
Weather by CustomWeather, © 2015

See weather overviewHow to use our weather pages